STARLINK-32609, 61929

Orbit data source: Space-Track

STARLINK-32609, 61929 is a payload satellite owned by SpaceX/Seattle (US) in LEO that was launched on Mon, 11 Nov 2024 UTC via an FALCON 9 launch vehicle from the Air Force Eastern Test Range (AFETR). Payload-class satellites include a variety of spacecraft equipped with specific instruments for various scientific and technological missions. These include communications satellites like Starlink; space stations such as the ISS; scientific satellites like the Hubble; Earth observation satellites from companies like Planet Labs, Umbra, and HawkEye 360; GPS; miniature CubeSats for education and research; and military/defense satellites.

Loading next visibility...
Identifier
61929, 2024-207T
Orbit
LEO
Country
Flag of USUS
Related business
Manufacturer
SpaceX/Seattle
Mission
Operational Commercial Communications
Bus & Motor
STARLINK V2M, Unknown motor
Mass
730 kg wet, ~700 kg dry
Launch date (UTC)
2024-11-11 (1 year ago)
Launch vehicle
FALCON 9
Launch site
Air Force Eastern Test Range (AFETR)
Object type
Payload
Rocket body
Debris
Shape & HBR
Box + 2 Pan, 17.7 m
Radar Cross Section
33.884 m², Large (>1 m²)

Expand to show TLE details & history
Last TLE update: 1 day ago

TLE from 1 day ago
0 STARLINK-32609
1 61929U 24207T   25312.85829441  .00057293  00000-0  20721-2 0  9996
2 61929  43.0019 244.0361 0005031 291.5837  68.4478 15.27623609 56245
Epoch: 2025-11-08T20:35Z
TLE epoch observation values (Epoch: 2025-11-08T20:35:56.637Z)
Latitude
-0.00003°
Longitude
-113.23179°
Altitude
481.428 km
Speed
7.627 km/s
True Right ascension
16h 16m 08s
True Declination
0° 00' 00"
Sunlit
Object was in daylight at epoch
Visualization orbit readout
Latitude
Unknown
Longitude
Unknown
Altitude
Unknown
Speed
Unknown
Apparent Right ascension
Unknown
Apparent Declination
Unknown
Sunlit
N/A
Visualization observer readout
Local Sidereal Time
03:44:36
Azimuth
Unknown
Elevation
Unknown
Doppler factor
Unknown
Orbital elements
Apogee altitude
488.316 km
Perigee altitude
481.411 km
Semi-major axis
6,863 km
Eccentricity
0.0005
Inclination
43.0019°
RAAN
244.0361°
Arg. of periapsis
291.5837°
True anomaly
68.50143°
Mean anomaly
68.4478°
Eccentric anomaly
68.47462°
Mean motion
3.81744 °/min
Orbital period
94.3 mins
BSTAR
0.0020721
Loading maneuver chart data...
Computing Atmospheric mass density...
Loading historical data...
Loading historical data...
Loading historical data...
Loading historical data...
Loading historical data...
Loading historical data...
Loading historical data...

Documentation

Showing up to 5 results
|